Back to catalog

TJS-7

AliveCommunicationsGEO
NORAD 49115·PAYLOAD·🇨🇳 China

Launched Aug 24, 2021 from Xichang Satellite Launch Center

Loading…

TLE

FreshSource: Space-Track

Epoch: Sep 14, 2026, 15:02 UTC

1 49115U 21077A   26257.62675458 -.00000132  00000-0  00000-0 0  9999
2 49115   0.1323 261.0249 0001831 102.7869 115.9128  1.00273561 10442

Track TJS-7 in real time with AllMySat

Download on the App Store